Voltar ao catálogo

DUMMY CUBESAT

AtivoCiênciaSSO
NORAD 52983·PAYLOAD·🇰🇷 South Korea

Lançado Jun 21, 2022 de Naro Space Center

Loading…

Próximas Passagens (próximas 24 horas)

TLE

AtualizadoSource: Space-Track

Época: Sep 14, 2026, 15:17 UTC

1 52983U 22065H   26257.63710541  .00000242  00000-0  59425-4 0  9998
2 52983  98.2421  38.2417 0008907 103.4158 256.8036 14.60652127223209

Acompanhe DUMMY CUBESAT em tempo real com AllMySat

Download on the App Store